Simultaneous Nadir Overpasses (SNOs) Predictions

Prediction of SNOs between LANDSAT-8 and NOAA-19 Satellite Orbit:

Table of predicted SNOs for the next 14.0 days since TLE Epoch: 12/5/2020
Index Date (LANDSAT-8) Time (LANDSAT-8) Lat,Lon (LANDSAT-8) SZA (LANDSAT-8 ) Date (NOAA-19) Time (NOAA-19) Lat,Lon (NOAA-19) SZA (NOAA-19 ) Distance(km) Time Diff (sec)
1 12/05/2020 11:21:02 80.08, 38.02 103.79 12/05/2020 11:20:27 80.10, 38.07 103.80 3.07 35
2 12/05/2020 12:10:29 -80.08,-154.34 76.22 12/05/2020 12:11:30 -80.08,-154.33 76.19 0.28 61
3 12/07/2020 16:54:46 -80.10, 134.76 75.95 12/07/2020 16:53:45 -80.11, 134.70 75.97 2.11 61
4 12/07/2020 17:44:12 80.10, -57.59 104.06 12/07/2020 17:44:40 80.08, -57.50 104.05 3.04 28
5 12/09/2020 23:17:57 -80.08, 38.84 75.78 12/09/2020 23:17:58 -80.10, 38.99 75.75 3.10 1
6 12/12/2020 04:51:39 80.13, 135.80 104.45 12/12/2020 04:51:09 80.10, 135.72 104.41 3.55 30
7 12/12/2020 05:41:07 -80.10, -56.81 75.59 12/12/2020 05:42:11 -80.08, -56.75 75.58 2.61 64
8 12/14/2020 10:25:24 -80.11,-127.78 75.46 12/14/2020 10:24:26 -80.12,-127.79 75.47 0.88 58
9 12/14/2020 11:14:50 80.11, 39.81 104.54 12/14/2020 11:15:23 80.10, 39.80 104.54 1.15 33
10 12/16/2020 16:48:34 -80.12, 136.52 75.36 12/16/2020 16:48:39 -80.11, 136.43 75.38 2.37 5
11 12/18/2020 22:22:17 80.12,-126.94 104.68 12/18/2020 22:21:52 80.13,-127.05 104.67 2.24 25



Historial Predications of SNOs between LANDSAT-8 and NOAA-19
